TimeEDT,TemperatureF,Dew PointF,Humidity,Sea Level PressureIn,VisibilityMPH,Wind Direction,Wind SpeedMPH,Gust SpeedMPH,PrecipitationIn,Events,Conditions,WindDirDegrees,DateUTC
12:56 AM,63.0,55.9,78,29.23,7.0,SE,21.9,29.9,N/A,,Overcast,130,2012-10-30 04:56:00
1:56 AM,62.6,55.4,77,29.25,7.0,SE,20.7,28.8,N/A,,Overcast,140,2012-10-30 05:56:00
2:30 AM,62.6,55.4,77,29.27,6.0,SE,15.0,-,N/A,,Haze,140,2012-10-30 06:30:00
2:56 AM,62.1,55.9,80,29.28,7.0,SSE,18.4,-,N/A,,Overcast,150,2012-10-30 06:56:00
3:56 AM,62.1,54.0,75,29.29,-9999.0,SSE,21.9,-,0.00,,Mostly Cloudy,150,2012-10-30 07:56:00
4:56 AM,61.0,55.9,83,29.32,-9999.0,SE,12.7,-,0.00,,Overcast,140,2012-10-30 08:56:00
5:56 AM,60.1,55.9,86,29.35,-9999.0,SSE,15.0,-,0.05,,Overcast,150,2012-10-30 09:56:00
6:56 AM,60.1,55.0,83,29.39,-9999.0,SE,18.4,-,0.00,,Mostly Cloudy,140,2012-10-30 10:56:00
7:56 AM,60.1,55.9,86,29.42,-9999.0,SE,18.4,24.2,0.00,Rain,Light Rain,140,2012-10-30 11:56:00
8:56 AM,61.0,55.9,83,29.45,-9999.0,SE,17.3,-,0.00,,Mostly Cloudy,140,2012-10-30 12:56:00
9:56 AM,63.0,54.0,72,29.48,10.0,SSE,18.4,-,N/A,,Overcast,160,2012-10-30 13:56:00
10:56 AM,64.0,54.0,70,29.49,10.0,SSE,18.4,-,N/A,,Mostly Cloudy,160,2012-10-30 14:56:00
11:56 AM,64.0,53.1,67,29.51,7.0,SSE,23.0,26.5,N/A,,Mostly Cloudy,150,2012-10-30 15:56:00
12:56 PM,64.9,55.9,73,29.51,6.0,SE,13.8,-,N/A,,Haze,130,2012-10-30 16:56:00
1:56 PM,64.9,55.9,73,29.51,7.0,SE,13.8,-,N/A,,Overcast,130,2012-10-30 17:56:00
2:56 PM,64.0,55.9,75,29.50,7.0,SE,12.7,-,N/A,,Overcast,130,2012-10-30 18:56:00
3:56 PM,63.0,57.0,81,29.51,7.0,SE,10.4,-,0.00,,Overcast,130,2012-10-30 19:56:00
4:56 PM,61.0,57.0,87,29.52,6.0,SE,12.7,19.6,0.01,,Overcast,140,2012-10-30 20:56:00
5:56 PM,60.1,57.0,90,29.51,3.0,SE,11.5,-,0.01,Rain,Light Rain,140,2012-10-30 21:56:00
6:08 PM,60.8,57.2,88,29.52,3.0,SE,11.5,-,0.00,Rain,Light Rain,140,2012-10-30 22:08:00
6:56 PM,59.0,54.0,83,29.49,3.0,ESE,6.9,-,0.00,,Haze,120,2012-10-30 22:56:00
7:56 PM,60.1,57.0,90,29.50,3.0,SSE,10.4,-,0.00,,Mostly Cloudy,160,2012-10-30 23:56:00
8:56 PM,59.0,55.0,87,29.52,3.0,SSE,13.8,-,N/A,,Clear,150,2012-10-31 00:56:00
9:56 PM,59.0,55.0,87,29.50,-9999.0,ESE,8.1,-,N/A,,Clear,120,2012-10-31 01:56:00
10:56 PM,59.0,55.0,87,29.50,-9999.0,SE,10.4,-,N/A,,Mostly Cloudy,130,2012-10-31 02:56:00
11:05 PM,60.8,55.4,82,29.50,-9999.0,SE,11.5,-,N/A,,Overcast,130,2012-10-31 03:05:00
11:13 PM,60.8,55.4,82,29.49,-9999.0,ESE,10.4,-,N/A,,Overcast,120,2012-10-31 03:13:00
11:56 PM,60.8,55.4,82,29.49,-9999.0,ESE,6.9,-,N/A,,Overcast,120,2012-10-31 03:56:00